Content
SEND FEEDBACK

Daily
Averages
Monthly
Summary
United States of America

SAULT STE. MARIE, MICHIGAN


Home > North America > United States > Michigan
Elevation: 699 feet     Latitude: 46 28N     Longitude: 084 22W

WEATHER
 
SELECT A DAY
Number of Records: 221,278;   Date Range: 1/1/95 - 12/27/14
 
SHARE

PRINT THIS DATA

[ ← Previous Day ]
WEATHER ALMANAC - OCTOBER 12, 2013
[ Next Day → ]
[ °C ]   °F
Weather ElementAverageHighLow
Temperature57.9 °F69.1 °F (2:55 pm)48.9 °F (1:55 am)
Dewpoint50.8 °F55.9 °F (10:34 pm)46.9 °F (1:55 am)
Humidity78.9 %94 % (11:52 pm)52 % (1:55 pm)
Barometer30.01 in30.07 in (1:55 am)29.96 in (4:55 pm)
Wind Speed7.4 mph13.8 mph (10:55 am)
Wind Gust23 mph (11:55 am)
Weather ElementAverage
Visibility9.6 mi
Wind DirectionESE (110 °)

Weather ElementTotal
Precipitation0.14 in
Heating Degree Days6 (Base 65)
Growing Degree Days9 (Base 50)
Averaged from 25 records on October 12, 2013
WEATHER CONDITIONS BREAKOUT
WIND DIRECTION BREAKOUT
WEATHER BY HOUR - OCTOBER 12, 2013
[ °C ]   °F
Local TimeTemperatureDewpointHumidityBarometerVisibilityWind DirectionWind SpeedGust SpeedPrecipitationEventsConditions
1:55 AM48.9 °F46.9 °F93 %30.07 in10.0 miEast (90°)5.8 mphClear
2:55 AM48.9 °F46.9 °F93 %30.07 in7.0 miEast (90°)4.6 mphClear
3:55 AM50.0 °F46.9 °F89 %30.06 in9.0 miEast (90°)4.6 mphClear
4:55 AM48.9 °F46.9 °F93 %30.06 in10.0 miCalmClear
5:55 AM48.9 °F46.9 °F93 %30.07 in10.0 miEast (100°)3.5 mphClear
6:55 AM48.9 °F46.9 °F93 %30.06 in10.0 miEast (80°)4.6 mphClear
7:55 AM50.0 °F48.0 °F93 %30.05 in8.0 miEast (80°)5.8 mphClear
8:55 AM53.1 °F50.0 °F89 %30.06 in10.0 miESE (110°)6.9 mphClear
9:55 AM57.0 °F52.0 °F83 %30.05 in10.0 miESE (120°)9.2 mphClear
10:55 AM61.0 °F51.1 °F70 %30.04 in10.0 miESE (120°)13.8 mph20.7 mphClear
11:55 AM64.0 °F50.0 °F60 %30.03 in10.0 miESE (120°)12.7 mph23.0 mphClear
12:55 PM66.9 °F50.0 °F54 %30.02 in10.0 miSE (130°)9.2 mphClear
1:55 PM68.0 °F50.0 °F52 %29.99 in10.0 miSE (130°)11.5 mph20.7 mphClear
2:55 PM69.1 °F51.1 °F53 %29.98 in10.0 miSE (140°)12.7 mph21.9 mphClear
3:55 PM69.1 °F53.1 °F57 %29.97 in10.0 miESE (120°)9.2 mph20.7 mphClear
4:55 PM64.9 °F52.0 °F63 %29.96 in10.0 miESE (120°)12.7 mphClear
5:55 PM63.0 °F51.1 °F65 %29.96 in10.0 miESE (110°)10.4 mph19.6 mphClear
6:55 PM60.1 °F51.1 °F72 %29.97 in10.0 miESE (120°)8.1 mphPartly Cloudy
7:55 PM59.0 °F51.1 °F75 %29.99 in10.0 miSE (140°)5.8 mphMostly Cloudy
8:55 PM57.9 °F52.0 °F81 %30.00 in10.0 miSSE (150°)3.5 mphMostly Cloudy
9:55 PM57.9 °F53.1 °F84 %29.98 in10.0 miESE (110°)5.8 mphOvercast
10:34 PM59.0 °F55.9 °F90 %29.98 in7.0 miESE (120°)6.9 mph0.07 inRainLight Rain
10:55 PM57.9 °F55.9 °F93 %29.98 in10.0 miESE (120°)5.8 mph0.07 inRainLight Rain
11:52 PM57.2 °F55.4 °F94 %29.96 in10.0 miESE (120°)6.9 mph0.00 inRainLight Rain
11:55 PM57.9 °F55.0 °F90 %29.96 in10.0 miESE (120°)5.8 mph0.00 inRainLight Rain
Hourly data recorded from KANJ, located miles away from Sault Ste. Marie, Michigan







STORIES FROM OUR PARTNERS